Owatonna, MN

1:50 AM CDT on July 21, 2017 (GMT -0500)
Owatonna Degner Regional

Weather History for KOWA - October, 2013

Change the Weather History Date:

Monday, October 7, 2013

  Actual Average Record
Temperature  
Mean Temperature 52 °F -  
Max Temperature 66 °F 63 °F 84 °F (1993)
Min Temperature 37 °F 40 °F 24 °F (1974)
Degree Days  
Heating Degree Days 14    
Growing Degree Days 2 (Base 50)    
Moisture  
Dew Point 41 °F    
Average Humidity 72    
Maximum Humidity 100    
Minimum Humidity 32    
Precipitation  
Precipitation 0.00 in - - ()
Sea Level Pressure  
Sea Level Pressure 29.94 in    
Wind  
Wind Speed 3 mph (WSW)    
Max Wind Speed 8 mph    
Max Gust Speed -    
Visibility 10 miles    
Events      
Averages and records for this station are not official NWS values.
T = Trace of Precipitation, MM = Missing Value Source: NWS Daily Summary

Daily Weather History Graph

Daily Weather History Graph

Search for Another Location

Airport or City:

Trip Planner

Search our weather history database for the weather conditions in past years. The results will help you decide how hot, cold, wet, or windy it might be!

Date:

Astronomy

Oct. 07, 2013 Rise Set
Actual Time 7:18 AM CDT 6:42 PM CDT
Civil Twilight 6:49 AM CDT 7:11 PM CDT
Nautical Twilight 6:15 AM CDT 7:44 PM CDT
Astronomical Twilight 5:42 AM CDT 8:18 PM CDT
Moon 10:15 AM CDT (10/7) 8:20 PM CDT (10/7)
Length of Visible Light 12h 22m
Length of Day
11h 24m
Waxing Crescent, 9% of the Moon is Illuminated
Oct 7
Waxing Crescent
Oct 11
First Quarter
Oct 18
Full
Oct 26
Last Quarter
Nov 3
New

Hourly Weather History & Observations

Time (CDT) Temp. Windchill Dew Point Humidity Pressure Visibility Wind Dir Wind Speed Gust Speed Precip Events Conditions
12:14 AM 44.6 °F 43.1 °F 42.8 °F 93% 29.87 in 10.0 mi West 3.5 mph - N/A   Clear
12:34 AM 42.8 °F 40.1 °F 42.8 °F 100% 29.87 in 10.0 mi West 4.6 mph - N/A   Clear
12:54 AM 42.8 °F 40.1 °F 42.8 °F 100% 29.87 in 10.0 mi WSW 4.6 mph - N/A   Clear
1:14 AM 42.8 °F 41.1 °F 42.8 °F 100% 29.87 in 10.0 mi WSW 3.5 mph - N/A   Clear
1:34 AM 42.8 °F 39.3 °F 41.0 °F 93% 29.87 in 10.0 mi West 5.8 mph - N/A   Clear
1:54 AM 42.8 °F 41.1 °F 41.0 °F 93% 29.88 in 10.0 mi West 3.5 mph - N/A   Clear
2:14 AM 42.8 °F 40.1 °F 39.2 °F 87% 29.88 in 10.0 mi WSW 4.6 mph - N/A   Clear
2:34 AM 42.8 °F 40.1 °F 39.2 °F 87% 29.87 in 10.0 mi SW 4.6 mph - N/A   Clear
2:54 AM 42.8 °F 41.1 °F 39.2 °F 87% 29.87 in 10.0 mi SW 3.5 mph - N/A   Clear
3:14 AM 42.8 °F - 39.2 °F 87% 29.87 in 10.0 mi Calm Calm - N/A   Clear
3:34 AM 41.0 °F 39.0 °F 39.2 °F 93% 29.87 in 10.0 mi SSW 3.5 mph - N/A   Clear
3:54 AM 42.8 °F - 39.2 °F 87% 29.87 in 10.0 mi Calm Calm - N/A   Mostly Cloudy
4:14 AM 41.0 °F - 39.2 °F 93% 29.87 in 10.0 mi Calm Calm - N/A   Scattered Clouds
4:34 AM 41.0 °F - 37.4 °F 87% 29.87 in 10.0 mi Calm Calm - N/A   Clear
4:54 AM 41.0 °F - 39.2 °F 93% 29.87 in 10.0 mi Calm Calm - N/A   Clear
5:14 AM 41.0 °F - 39.2 °F 93% 29.87 in 10.0 mi Calm Calm - N/A   Clear
5:34 AM 42.8 °F 41.1 °F 39.2 °F 87% 29.87 in 10.0 mi SW 3.5 mph - N/A   Clear
5:54 AM 42.8 °F - 39.2 °F 87% 29.87 in 10.0 mi Calm Calm - N/A   Clear
6:14 AM 41.0 °F - 37.4 °F 87% 29.88 in 10.0 mi Calm Calm - N/A   Clear
6:34 AM 39.2 °F 37.0 °F 37.4 °F 93% 29.88 in 10.0 mi WSW 3.5 mph - N/A   Clear
6:54 AM 39.2 °F - 37.4 °F 93% 29.89 in 10.0 mi Calm Calm - N/A   Clear
7:14 AM 39.2 °F - 37.4 °F 93% 29.89 in 10.0 mi Calm Calm - N/A   Clear
7:34 AM 37.4 °F - 37.4 °F 100% 29.90 in 10.0 mi Calm Calm - N/A   Clear
7:54 AM 39.2 °F - 37.4 °F 93% 29.91 in 10.0 mi Calm Calm - N/A   Clear
8:14 AM 42.8 °F - 39.2 °F 87% 29.91 in 10.0 mi Calm Calm - N/A   Clear
8:34 AM 44.6 °F - 41.0 °F 87% 29.92 in 10.0 mi Calm Calm - N/A   Clear
8:54 AM 46.4 °F - 42.8 °F 87% 29.93 in 10.0 mi Calm Calm - N/A   Clear
9:14 AM 48.2 °F - 42.8 °F 82% 29.94 in 10.0 mi West 4.6 mph - N/A   Clear
9:34 AM 48.2 °F - 44.6 °F 87% 29.95 in 10.0 mi West 5.8 mph - N/A   Clear
9:54 AM 51.8 °F - 44.6 °F 76% 29.95 in 10.0 mi West 4.6 mph - N/A   Clear
10:14 AM 51.8 °F - 44.6 °F 76% 29.96 in 10.0 mi WNW 5.8 mph - N/A   Clear
10:34 AM 53.6 °F - 44.6 °F 72% 29.96 in 10.0 mi NNW 3.5 mph - N/A   Clear
10:54 AM 55.4 °F - 44.6 °F 67% 29.97 in 10.0 mi NNW 3.5 mph - N/A   Clear
11:14 AM 55.4 °F - 46.4 °F 72% 29.98 in 10.0 mi WNW 3.5 mph - N/A   Clear
11:34 AM 57.2 °F - 46.4 °F 67% 29.98 in 10.0 mi NW 4.6 mph - N/A   Clear
11:54 AM 57.2 °F - 46.4 °F 67% 29.98 in 10.0 mi NW 3.5 mph - N/A   Clear
12:14 PM 60.8 °F - 46.4 °F 59% 29.98 in 10.0 mi West 3.5 mph - N/A   Clear
12:34 PM 60.8 °F - 42.8 °F 52% 29.98 in 10.0 mi West 3.5 mph - N/A   Clear
12:54 PM 62.6 °F - 42.8 °F 48% 29.98 in 10.0 mi WNW 5.8 mph - N/A   Clear
1:14 PM 62.6 °F - 41.0 °F 45% 29.98 in 10.0 mi WNW 6.9 mph - N/A   Clear
1:34 PM 64.4 °F - 39.2 °F 40% 29.98 in 10.0 mi NNW 6.9 mph - N/A   Clear
1:54 PM 64.4 °F - 37.4 °F 37% 29.97 in 10.0 mi WNW 6.9 mph - N/A   Clear
2:14 PM 64.4 °F - 39.2 °F 40% 29.98 in 10.0 mi North 5.8 mph - N/A   Clear
2:34 PM 64.4 °F - 37.4 °F 37% 29.98 in 10.0 mi Calm Calm - N/A   Clear
2:54 PM 64.4 °F - 39.2 °F 40% 29.98 in 10.0 mi NNW 5.8 mph - N/A   Clear
3:14 PM 66.2 °F - 39.2 °F 37% 29.98 in 10.0 mi WNW 4.6 mph - N/A   Clear
3:34 PM 66.2 °F - 37.4 °F 35% 29.98 in 10.0 mi SW 3.5 mph - N/A   Clear
3:54 PM 66.2 °F - 37.4 °F 35% 29.98 in 10.0 mi WSW 3.5 mph - N/A   Clear
4:14 PM 64.4 °F - 37.4 °F 37% 29.98 in 10.0 mi NNW 3.5 mph - N/A   Clear
4:34 PM 66.2 °F - 35.6 °F 32% 29.98 in 10.0 mi Calm Calm - N/A   Clear
4:54 PM 64.4 °F - 37.4 °F 37% 29.98 in 1.5 mi Calm Calm - N/A   Haze
5:14 PM 64.4 °F - 37.4 °F 37% 29.97 in 10.0 mi SW 3.5 mph - N/A   Clear
5:34 PM 64.4 °F - 37.4 °F 37% 29.97 in 10.0 mi WSW 4.6 mph - N/A   Clear
5:54 PM 64.4 °F - 37.4 °F 37% 29.98 in 10.0 mi Calm Calm - N/A   Clear
6:14 PM 62.6 °F - 37.4 °F 39% 29.98 in 10.0 mi Calm Calm - N/A   Clear
6:34 PM 57.2 °F - 42.8 °F 59% 29.98 in 10.0 mi Calm Calm - N/A   Clear
6:54 PM 53.6 °F - 44.6 °F 72% 29.98 in 10.0 mi Calm Calm - N/A   Clear
7:14 PM 53.6 °F - 42.8 °F 67% 29.98 in 10.0 mi Calm Calm - N/A   Clear
7:34 PM 53.6 °F - 44.6 °F 72% 29.99 in 10.0 mi Calm Calm - N/A   Clear
7:54 PM 51.8 °F - 44.6 °F 76% 29.99 in 10.0 mi ESE 4.6 mph - N/A   Clear
8:14 PM 51.8 °F - 44.6 °F 76% 29.99 in 10.0 mi Calm Calm - N/A   Clear
8:34 PM 50.0 °F - 44.6 °F 82% 30.00 in 10.0 mi SE 4.6 mph - N/A   Clear
8:54 PM 48.2 °F - 44.6 °F 87% 30.00 in 10.0 mi SE 3.5 mph - N/A   Clear
9:14 PM 48.2 °F - 42.8 °F 82% 30.00 in 10.0 mi SE 4.6 mph - N/A   Clear
9:34 PM 48.2 °F - 42.8 °F 82% 30.00 in 10.0 mi SE 4.6 mph - N/A   Clear
9:54 PM 48.2 °F - 42.8 °F 82% 30.00 in 10.0 mi SE 4.6 mph - N/A   Clear
10:14 PM 50.0 °F - 42.8 °F 76% 30.00 in 10.0 mi SE 5.8 mph - N/A   Clear
10:34 PM 50.0 °F - 42.8 °F 76% 30.00 in 10.0 mi SE 5.8 mph - N/A   Clear
10:54 PM 50.0 °F - 42.8 °F 76% 30.00 in 10.0 mi SE 6.9 mph - N/A   Clear
11:14 PM 51.8 °F - 41.0 °F 67% 30.00 in 10.0 mi SE 6.9 mph - N/A   Clear
11:34 PM 50.0 °F - 41.0 °F 71% 29.99 in 10.0 mi SE 6.9 mph - N/A   Clear
11:54 PM 51.8 °F - 41.0 °F 67% 29.99 in 10.0 mi SE 8.1 mph - N/A   Clear